WJA43 CYWG-MDPC

Flight info

Callsign WJA43
Flight time N/A
Altitude 33000
Route OMLOT DCT TUKAD DCT WIEDS DCT FOLGO DCT FNT DCT EWC/N0461F350 DCT ECG AR8 OXANA/M080F350 L452 KASAR/M080F370 L452 LNHOM/N0465F370 L452 SLUKA/N0471F360 DCT POKEG POKEG2B
Aircraft B738/M-SDE2E3FGHIRWXY/LB1

Departure

Time 2026-05-04 02:35
Airport Winnipeg / James Armstrong Richardson International Airport (CYWG)

Arrival

Time N/A
Airport Punta Cana International Airport (MDPC)
Time Latitude Longitude Altitude Speed Heading
2026-05-04 02:14 49.90654 -97.22721 783 ft 0 kts 162°
2026-05-04 02:15 49.90605 -97.22822 784 ft 0 kts 27°
2026-05-04 02:27 49.90606 -97.22822 784 ft 1 kts 11°
2026-05-04 02:27 49.90620 -97.22860 783 ft 8 kts 295°
2026-05-04 02:27 49.90628 -97.22888 782 ft 0 kts 288°
2026-05-04 02:28 49.90625 -97.22900 782 ft 3 kts 250°
2026-05-04 02:29 49.90594 -97.22915 782 ft 8 kts 178°
2026-05-04 02:29 49.90544 -97.22893 783 ft 2 kts 162°
2026-05-04 02:29 49.90497 -97.22877 783 ft 11 kts 184°
2026-05-04 02:29 49.90391 -97.22923 783 ft 20 kts 199°
2026-05-04 02:30 49.90240 -97.22998 784 ft 4 kts 192°
2026-05-04 02:30 49.90212 -97.23016 784 ft 9 kts 209°
2026-05-04 02:30 49.90200 -97.23029 784 ft 11 kts 221°
2026-05-04 02:31 49.90170 -97.23142 785 ft 16 kts 250°
2026-05-04 02:31 49.90125 -97.23180 785 ft 10 kts 172°
2026-05-04 02:31 49.90022 -97.23060 783 ft 28 kts 138°
2026-05-04 02:32 49.89863 -97.22827 779 ft 32 kts 132°
2026-05-04 02:32 49.89728 -97.22573 781 ft 21 kts 128°
2026-05-04 02:32 49.89722 -97.22561 781 ft 0 kts 128°
2026-05-04 02:32 49.89711 -97.22542 781 ft 11 kts 142°
2026-05-04 02:33 49.89605 -97.22663 778 ft 7 kts 229°
2026-05-04 02:33 49.89599 -97.22675 778 ft 0 kts 229°
2026-05-04 02:34 49.89595 -97.22680 778 ft 0 kts 229°
2026-05-04 02:34 49.89552 -97.22790 777 ft 22 kts 268°
2026-05-04 02:34 49.89652 -97.22972 774 ft 30 kts 318°
2026-05-04 02:35 49.89981 -97.23423 783 ft 95 kts 319°
2026-05-04 02:35 49.90624 -97.24297 850 ft 142 kts 320°
2026-05-04 02:35 49.91453 -97.25265 1375 ft 163 kts 325°
2026-05-04 02:35 49.92607 -97.25873 1713 ft 195 kts 355°
2026-05-04 02:36 49.93852 -97.25171 2729 ft 191 kts 28°
2026-05-04 02:36 49.94697 -97.23445 3327 ft 221 kts 60°
2026-05-04 02:36 49.94900 -97.20889 3494 ft 259 kts 94°
2026-05-04 02:36 49.94174 -97.18175 3680 ft 289 kts 127°
2026-05-04 02:37 49.92725 -97.15862 4095 ft 305 kts 138°
2026-05-04 02:37 49.91134 -97.13630 4777 ft 310 kts 139°
2026-05-04 02:37 49.89525 -97.11392 5582 ft 311 kts 140°
2026-05-04 02:37 49.87905 -97.09131 6280 ft 315 kts 140°
2026-05-04 02:38 49.86275 -97.06839 6989 ft 317 kts 140°
2026-05-04 02:38 49.84661 -97.04554 7710 ft 319 kts 140°
2026-05-04 02:38 49.83018 -97.02212 8422 ft 322 kts 141°
2026-05-04 02:38 49.81349 -96.99833 9155 ft 325 kts 141°
2026-05-04 02:39 49.79673 -96.97445 9838 ft 328 kts 142°
2026-05-04 02:39 49.78005 -96.95071 10425 ft 334 kts 142°
2026-05-04 02:39 49.76239 -96.92569 10588 ft 355 kts 142°
2026-05-04 02:39 49.74451 -96.90032 10795 ft 372 kts 142°
2026-05-04 02:40 49.72489 -96.87246 10952 ft 391 kts 142°
2026-05-04 02:40 49.70438 -96.84337 11119 ft 408 kts 142°
2026-05-04 02:40 49.68390 -96.81191 11558 ft 419 kts 137°
2026-05-04 02:40 49.66425 -96.77825 12159 ft 423 kts 136°
2026-05-04 02:41 49.64487 -96.74371 12783 ft 427 kts 136°
2026-05-04 02:41 49.62539 -96.70875 13315 ft 432 kts 136°
2026-05-04 02:41 49.60561 -96.67351 13787 ft 436 kts 136°
2026-05-04 02:41 49.58581 -96.63856 14241 ft 441 kts 136°
2026-05-04 02:42 49.56547 -96.60298 14734 ft 445 kts 137°
2026-05-04 02:42 49.54481 -96.56705 15099 ft 452 kts 137°
2026-05-04 02:42 49.52376 -96.53061 15481 ft 458 kts 137°
2026-05-04 02:42 49.50244 -96.49380 15990 ft 461 kts 137°
2026-05-04 02:43 49.48103 -96.45688 16536 ft 463 kts 137°
2026-05-04 02:43 49.45949 -96.41978 17014 ft 467 kts 137°
2026-05-04 02:43 49.43769 -96.38231 17486 ft 470 kts 137°
2026-05-04 02:43 49.41576 -96.34465 17927 ft 474 kts 137°
2026-05-04 02:44 49.39374 -96.30689 18363 ft 476 kts 137°
2026-05-04 02:44 49.37183 -96.26937 18781 ft 479 kts 137°
2026-05-04 02:44 49.34950 -96.23121 19188 ft 481 kts 136°
2026-05-04 02:44 49.32713 -96.19298 19778 ft 479 kts 136°
2026-05-04 02:45 49.30474 -96.15478 20155 ft 483 kts 136°
2026-05-04 02:45 49.28233 -96.11662 20457 ft 488 kts 136°
2026-05-04 02:45 49.25958 -96.07798 20826 ft 491 kts 136°
2026-05-04 02:45 49.23667 -96.03912 21219 ft 493 kts 136°
2026-05-04 02:46 49.21359 -96.00003 21588 ft 496 kts 136°
2026-05-04 02:46 49.19038 -95.96077 21949 ft 499 kts 136°
2026-05-04 02:46 49.16705 -95.92136 22295 ft 501 kts 136°
2026-05-04 02:46 49.12891 -95.85698 22856 ft 505 kts 136°
2026-05-04 02:47 49.08162 -95.77704 23443 ft 510 kts 136°
2026-05-04 02:47 49.03379 -95.69641 23955 ft 516 kts 136°
2026-05-04 02:47 48.98526 -95.61499 24475 ft 520 kts 136°
2026-05-04 02:47 48.93628 -95.53312 24984 ft 524 kts 136°
2026-05-04 02:48 48.88688 -95.45081 25460 ft 529 kts 136°
2026-05-04 02:48 48.83771 -95.36909 26016 ft 530 kts 136°
2026-05-04 02:48 48.78802 -95.28669 26746 ft 528 kts 136°
2026-05-04 02:48 48.73824 -95.20439 27374 ft 529 kts 135°
2026-05-04 02:49 48.68860 -95.12260 28144 ft 526 kts 135°
2026-05-04 02:49 48.63882 -95.04087 28735 ft 527 kts 135°
2026-05-04 02:49 48.58907 -94.95949 29422 ft 526 kts 135°
2026-05-04 02:49 48.53922 -94.87817 29923 ft 527 kts 135°
2026-05-04 02:50 48.48904 -94.79663 30195 ft 533 kts 135°
2026-05-04 02:50 48.43859 -94.71487 30888 ft 528 kts 135°
2026-05-04 02:50 48.38872 -94.63421 31455 ft 527 kts 135°
2026-05-04 02:50 48.33923 -94.55448 31845 ft 527 kts 135°
2026-05-04 02:51 48.28976 -94.47501 32617 ft 520 kts 135°
2026-05-04 02:51 48.23977 -94.39503 32569 ft 529 kts 135°
2026-05-04 02:51 48.13864 -94.23404 32453 ft 526 kts 135°
2026-05-04 02:52 48.03971 -94.07725 32477 ft 510 kts 135°
2026-05-04 02:52 47.94221 -93.92386 32497 ft 512 kts 135°
2026-05-04 02:53 47.84277 -93.76843 32543 ft 521 kts 135°
2026-05-04 02:53 47.74235 -93.61230 32473 ft 520 kts 135°
2026-05-04 02:54 47.64400 -93.46026 32553 ft 508 kts 135°
2026-05-04 02:54 47.54559 -93.30932 32579 ft 506 kts 135°
2026-05-04 02:55 47.45875 -93.14539 32613 ft 518 kts 121°
2026-05-04 02:55 47.42095 -93.05444 32610 ft 521 kts 121°
2026-05-04 02:56 47.34357 -92.87437 32581 ft 515 kts 122°
2026-05-04 02:56 47.26649 -92.69864 32621 ft 506 kts 122°
2026-05-04 02:57 47.18981 -92.52470 32642 ft 509 kts 122°
2026-05-04 02:57 47.11133 -92.34785 32662 ft 523 kts 122°
2026-05-04 02:58 47.03174 -92.16969 32638 ft 523 kts 122°
2026-05-04 02:58 46.94987 -91.99494 32631 ft 515 kts 125°
2026-05-04 02:59 46.87245 -91.82018 32618 ft 509 kts 121°
2026-05-04 02:59 46.79517 -91.64750 32654 ft 513 kts 123°
2026-05-04 03:00 46.71464 -91.47238 32653 ft 524 kts 123°
2026-05-04 03:00 46.63346 -91.29627 32646 ft 521 kts 122°
2026-05-04 03:01 46.55324 -91.12288 32647 ft 512 kts 122°
2026-05-04 03:01 46.47384 -90.95275 32672 ft 507 kts 122°
2026-05-04 03:02 46.40761 -90.81155 32688 ft 514 kts 122°
2026-05-04 03:02 46.31304 -90.61123 32688 ft 518 kts 123°
2026-05-04 03:03 46.23212 -90.44098 32698 ft 508 kts 123°
2026-05-04 03:03 46.16570 -90.30196 32697 ft 505 kts 123°
2026-05-04 03:04 46.08535 -90.13468 32737 ft 511 kts 123°
2026-05-04 03:04 45.99002 -89.93754 32724 ft 518 kts 123°
2026-05-04 03:05 45.92130 -89.79632 32691 ft 510 kts 123°
2026-05-04 03:05 45.84058 -89.63129 32698 ft 501 kts 123°
2026-05-04 03:06 45.75997 -89.46741 32707 ft 506 kts 124°
2026-05-04 03:06 45.67825 -89.30227 32727 ft 514 kts 124°
2026-05-04 03:07 45.59550 -89.13604 32704 ft 511 kts 124°
2026-05-04 03:07 45.51380 -88.97288 32691 ft 498 kts 124°
2026-05-04 03:08 45.43277 -88.81190 33082 ft 504 kts 124°
2026-05-04 03:08 45.39167 -88.73063 33560 ft 503 kts 124°
2026-05-04 03:08 45.35082 -88.65009 34133 ft 499 kts 124°
2026-05-04 03:08 45.31067 -88.57115 34425 ft 501 kts 124°
2026-05-04 03:09 45.26979 -88.49097 34750 ft 501 kts 125°
2026-05-04 03:09 45.18690 -88.32910 34708 ft 509 kts 125°
2026-05-04 03:10 45.10394 -88.16803 34691 ft 501 kts 125°
2026-05-04 03:10 45.02236 -88.01050 34693 ft 492 kts 125°
2026-05-04 03:11 44.94151 -87.85521 34712 ft 495 kts 126°
2026-05-04 03:11 44.85881 -87.69718 34729 ft 505 kts 126°
2026-05-04 03:12 44.78237 -87.53106 34696 ft 504 kts 120°
2026-05-04 03:12 44.70862 -87.36462 34691 ft 495 kts 121°
2026-05-04 03:13 44.63557 -87.20356 34710 ft 490 kts 121°
2026-05-04 03:13 44.56140 -87.04090 34725 ft 499 kts 121°